Regional Weather Roundup
Issued by NWS Newport/Morehead, NC

Current Version | Previous Version | Graphics & Text | Print | Product List | Glossary On
Versions: 1 2 3 4 5 6 7 8 9 10 11 12 13 14 15 16 17 18 19 20 21 22 23 24 25 26 27 28 29 30 31 32 33 34 35 36 37 38 39 40 41 42 43 44 45 46 47 48 49 50
000 ASUS42 KMHX 261822 RWRMHX WEATHER ROUNDUP FOR EASTERN NORTH CAROLINA NATIONAL WEATHER SERVICE NEWPORT/MOREHEAD CITY NC 100 PM EST FRI DEC 26 2014 NOTE: "FAIR" INDICATES FEW OR NO CLOUDS BELOW 12,000 FEET WITH NO SIGNIFICANT WEATHER AND/OR OBSTRUCTIONS TO VISIBILITY NCZ015>017-031-032-045>047-102-103-261900- NORTH COAST CITY SKY/WX TMP DP RH WIND PRES REMARKS EDENTON FAIR 55 37 50 W5 30.30F ELIZABETH CITY FAIR 58 37 45 W5 30.30F KITTY HAWK FAIR 53 42 65 W5 30.28F MANTEO FAIR 55 39 54 NW6 30.30F $$ NCZ045>047-081-094-103-104-261900- CENTRAL COAST CITY SKY/WX TMP DP RH WIND PRES REMARKS FRISCO FAIR 53 44 71 NW7 30.31F SWANQUARTER N/A 55 N/A N/A SW5 30.27S $$ NCZ095-097-098-100-101-261900- SOUTHERN COAST CITY SKY/WX TMP DP RH WIND PRES REMARKS BEAUFORT FAIR 57 37 47 NW6 30.30F CEDAR ISLAND N/A 52 N/A N/A N2 30.33F JACKSONVILLE FAIR 57 34 41 E5 30.29F PINEY ISLAND FAIR 58 31 35 W5 30.30F WILMINGTON FAIR 60 40 47 N3 30.30F $$ NCZ011>013-027>030-043-044-078>080-089-090>093-098-261900- COASTAL PLAIN CITY SKY/WX TMP DP RH WIND PRES REMARKS AHOSKIE FAIR 54 34 47 CALM 30.30F CLINTON FAIR 58 37 46 CALM 30.31F ELIZABETHTOWN FAIR 57 33 40 CALM 30.30F GOLDSBORO FAIR 57 42 55 VRB2 30.29F GREENVILLE FAIR 55 34 44 CALM 30.31F HAVELOCK FAIR 59 35 40 CALM 30.31F KENANSVILLE FAIR 57 33 39 CALM 30.31F KINSTON FAIR 57 34 41 W3 30.31F NEW BERN FAIR 59 35 40 NW5 30.31F RICHLANDS FAIR 57 34 41 NW5 30.30F ROCKY MOUNT FAIR 57 36 45 SW7 30.31F WASHINGTON FAIR 55 35 47 W3 30.30F WHITEVILLE FAIR 59 35 41 E3 30.29F $$ AMZ130-135-150-152-154-156-158-170-250-252-270-ANZ085-086-088-633-658-670-261900- MARINE OBSERVATIONS STATION/POSITION TIME TEMP WIND PRES WAVE SWELL AIR SEA DIR/SP/G HT/PER HT/PER (UTC) (F) (DEG/KT/KT) (MB) (FT/S) (FT/S) CHESAPEAKE LIGHT 1800 49 70/ 3/ 3 1026.5 64 E VA BEACH 1800 51 52 360/ 4/ 4 1025.4 3/ 8 2/ 8 DUCK 1800 52 51 240/ 7/ 9 1025.2 2 E DUCK 1800 51 N/A 2/13 10 NE DUCK 1800 51 N/A 2/ 8 OREGON INLET 1800 53 53 200/ 2/ 3 1025.9 13E OREGON INLT 1800 51 N/A 2/ 8 2/11 HATTERAS CG 1800 52 54 300/ 7/ 8 1026.5 DIAMOND BUOY NOT AVBL 17 S OCRACOKE NOT AVBL CAPE LOOKOUT 1800 55 320/ 6/ 7 1025.9 BEAUFORT LAB 1800 56 54 350/ 5/ 6 1025.0 30 SE NEW RIVER 1800 56 60 360/ 8/ 10 1026.2 2/ 7 2/ 7 5 SE WRIGHTSVLE NOT AVBL 225 S CAPE HAT 1708 67 74 50/ 6/ 10 1024.7 4/ 6 3/ 6 41 SE CHARLESTON 1800 63 73 30/ 12/ 16 1024.8 3/ 7 2/ 7 $$

USA.gov is the U.S. government's official web portal to all federal, state and local government web resources and services.